Location: Unspecified
(0.0000°N, 0.0000°E)
Time: 10:35:50
(UTC+00:00)

N. Korean satellite - Visible Passes

Search period start: 20 August 2018 00:00
Search period end: 30 August 2018 00:00
Orbit: 457 x 513 km, 97.2° (Epoch: 19 August)

Date Brightness Start Highest point End Pass type
(mag) Time Alt. Az. Time Alt. Az. Time Alt. Az.
20 Aug 10.0 05:13:44 10° E 05:14:51 11° ESE 05:15:57 10° ESE visible
20 Aug 8.9 18:33:05 10° SSW 18:36:12 27° WSW 18:39:17 10° NW visible
23 Aug 9.2 05:32:33 10° NE 05:35:30 24° ESE 05:38:30 10° SSE visible
23 Aug 9.8 18:55:15 10° SW 18:56:52 13° WSW 18:58:29 10° WNW visible
24 Aug 10.4 05:11:12 10° E 05:11:21 10° ESE 05:11:31 10° ESE visible
24 Aug 8.7 18:29:30 10° SSW 18:32:43 30° WSW 18:35:51 10° NW visible
27 Aug 9.4 05:29:08 10° NE 05:31:59 22° ESE 05:34:52 10° SSE visible
27 Aug 9.8 18:51:25 10° SW 18:53:20 14° WSW 18:55:13 10° WNW visible
28 Aug 8.4 18:25:54 10° SSW 18:29:09 34° WSW 18:32:21 10° NW visible
